Time,TemperatureF,DewpointF,PressureIn,WindDirection,WindDirectionDegrees,WindSpeedMPH,WindSpeedGustMPH,Humidity,HourlyPrecipIn,Conditions,Clouds,dailyrainin,SolarRadiationWatts/m^2,SoftwareType,DateUTC
2013-03-22 00:04:00,24.5,13.3,30.03,West,271,0.0,0.0,62,0.00,CLR,CLR,0.00,0.0,WeatherDisplay:10.37,2013-03-22 04:04:00,
2013-03-22 00:09:00,24.2,13.1,30.03,West,271,0.0,0.0,62,0.00,CLR,CLR,0.00,0.0,WeatherDisplay:10.37,2013-03-22 04:09:00,
2013-03-22 00:14:00,23.9,12.8,30.03,West,271,0.0,0.0,62,0.00,CLR,CLR,0.00,0.0,WeatherDisplay:10.37,2013-03-22 04:14:00,
2013-03-22 00:20:00,23.8,13.0,30.03,West,271,0.0,0.0,63,0.00,CLR,CLR,0.00,0.0,WeatherDisplay:10.37,2013-03-22 04:20:00,
2013-03-22 00:30:00,23.6,12.8,30.03,West,271,0.0,0.0,63,0.00,CLR,CLR,0.00,0.0,WeatherDisplay:10.37,2013-03-22 04:30:00,
2013-03-22 00:39:00,23.6,13.2,30.04,West,271,0.0,0.0,64,0.00,CLR,CLR,0.00,0.0,WeatherDisplay:10.37,2013-03-22 04:39:00,
2013-03-22 00:44:00,23.5,12.7,30.04,West,271,0.0,0.0,63,0.00,CLR,CLR,0.00,0.0,WeatherDisplay:10.37,2013-03-22 04:44:00,
2013-03-22 00:50:00,23.4,13.1,30.04,West,271,0.0,0.0,64,0.00,CLR,CLR,0.00,0.0,WeatherDisplay:10.37,2013-03-22 04:50:00,
2013-03-22 00:54:00,23.3,13.2,30.04,West,271,0.0,0.0,65,0.00,CLR,CLR,0.00,0.0,WeatherDisplay:10.37,2013-03-22 04:54:00,
2013-03-22 01:04:00,23.0,13.3,30.04,West,271,0.0,0.0,66,0.00,CLR,CLR,0.00,0.0,WeatherDisplay:10.37,2013-03-22 05:04:00,
2013-03-22 01:09:00,22.9,12.9,30.04,West,271,0.0,0.0,65,0.00,CLR,CLR,0.00,0.0,WeatherDisplay:10.37,2013-03-22 05:09:00,
2013-03-22 01:20:00,22.6,12.9,30.04,West,271,0.0,0.0,66,0.00,CLR,CLR,0.00,0.0,WeatherDisplay:10.37,2013-03-22 05:20:00,
2013-03-22 01:29:00,22.3,13.3,30.04,West,271,0.0,0.0,68,0.00,CLR,CLR,0.00,0.0,WeatherDisplay:10.37,2013-03-22 05:29:00,
2013-03-22 01:34:00,22.1,12.8,30.04,West,271,0.0,0.0,67,0.00,CLR,CLR,0.00,0.0,WeatherDisplay:10.37,2013-03-22 05:34:00,
2013-03-22 01:39:00,21.9,12.2,30.04,West,271,0.0,0.0,66,0.00,CLR,CLR,0.00,0.0,WeatherDisplay:10.37,2013-03-22 05:39:00,
2013-03-22 01:44:00,21.7,12.4,30.04,West,271,0.0,0.0,67,0.00,CLR,CLR,0.00,0.0,WeatherDisplay:10.37,2013-03-22 05:44:00,
2013-03-22 01:50:00,21.6,12.3,30.03,West,271,0.0,0.0,67,0.00,CLR,CLR,0.00,0.0,WeatherDisplay:10.37,2013-03-22 05:50:00,
2013-03-22 01:54:00,21.5,12.6,30.03,West,271,0.0,0.0,68,0.00,CLR,CLR,0.00,0.0,WeatherDisplay:10.37,2013-03-22 05:54:00,
2013-03-22 02:04:00,21.4,12.8,30.04,West,271,0.0,0.0,69,0.00,CLR,CLR,0.00,0.0,WeatherDisplay:10.37,2013-03-22 06:04:00,
2013-03-22 02:10:00,21.4,12.8,30.04,West,271,0.0,0.0,69,0.00,CLR,CLR,0.00,0.0,WeatherDisplay:10.37,2013-03-22 06:10:00,
2013-03-22 02:19:00,21.3,13.0,30.04,West,271,0.0,0.0,70,0.00,CLR,CLR,0.00,0.0,WeatherDisplay:10.37,2013-03-22 06:19:00,
2013-03-22 02:24:00,21.2,13.6,30.05,West,271,0.0,0.0,72,0.00,CLR,CLR,0.00,0.0,WeatherDisplay:10.37,2013-03-22 06:24:00,
2013-03-22 02:30:00,21.2,13.6,30.05,West,271,0.0,0.0,72,0.00,CLR,CLR,0.00,0.0,WeatherDisplay:10.37,2013-03-22 06:30:00,
2013-03-22 02:35:00,21.1,13.5,30.05,West,271,0.0,0.0,72,0.00,CLR,CLR,0.00,0.0,WeatherDisplay:10.37,2013-03-22 06:35:00,
2013-03-22 02:40:00,21.0,13.1,30.05,West,271,0.0,0.0,71,0.00,CLR,CLR,0.00,0.0,WeatherDisplay:10.37,2013-03-22 06:40:00,
2013-03-22 02:49:00,20.9,12.9,30.04,West,271,0.0,0.0,71,0.00,CLR,CLR,0.00,0.0,WeatherDisplay:10.37,2013-03-22 06:49:00,
2013-03-22 02:59:00,20.7,13.4,30.05,West,271,0.0,0.0,73,0.00,CLR,CLR,0.00,0.0,WeatherDisplay:10.37,2013-03-22 06:59:00,
2013-03-22 03:04:00,20.7,13.7,30.05,West,271,0.0,1.0,74,0.00,CLR,CLR,0.00,0.0,WeatherDisplay:10.37,2013-03-22 07:04:00,
2013-03-22 03:10:00,20.7,13.7,30.05,West,271,0.0,0.0,74,0.00,CLR,CLR,0.00,0.0,WeatherDisplay:10.37,2013-03-22 07:10:00,
2013-03-22 03:14:00,20.7,13.7,30.05,West,271,0.0,0.0,74,0.00,CLR,CLR,0.00,0.0,WeatherDisplay:10.37,2013-03-22 07:14:00,
2013-03-22 03:19:00,20.7,13.7,30.06,West,271,0.0,0.0,74,0.00,CLR,CLR,0.00,0.0,WeatherDisplay:10.37,2013-03-22 07:19:00,
2013-03-22 03:24:00,20.7,13.7,30.06,West,271,0.0,0.0,74,0.00,CLR,CLR,0.00,0.0,WeatherDisplay:10.37,2013-03-22 07:24:00,
2013-03-22 03:30:00,20.7,13.7,30.06,West,271,0.0,0.0,74,0.00,CLR,CLR,0.00,0.0,WeatherDisplay:10.37,2013-03-22 07:30:00,
2013-03-22 03:34:00,20.6,13.3,30.06,West,271,0.0,0.0,73,0.00,CLR,CLR,0.00,0.0,WeatherDisplay:10.37,2013-03-22 07:34:00,
2013-03-22 03:44:00,20.5,13.5,30.07,West,271,0.0,0.0,74,0.00,CLR,CLR,0.00,0.0,WeatherDisplay:10.37,2013-03-22 07:44:00,
2013-03-22 03:50:00,20.5,13.2,30.07,West,271,0.0,0.0,73,0.00,CLR,CLR,0.00,0.0,WeatherDisplay:10.37,2013-03-22 07:50:00,
2013-03-22 03:59:00,20.6,13.7,30.07,West,271,0.0,0.0,74,0.00,CLR,CLR,0.00,0.0,WeatherDisplay:10.37,2013-03-22 07:59:00,
2013-03-22 04:04:00,20.7,14.0,30.07,West,271,0.0,0.0,75,0.00,CLR,CLR,0.00,0.0,WeatherDisplay:10.37,2013-03-22 08:04:00,
2013-03-22 04:09:00,20.7,13.7,30.07,West,271,0.0,1.0,74,0.00,CLR,CLR,0.00,0.0,WeatherDisplay:10.37,2013-03-22 08:09:00,
2013-03-22 04:19:00,20.5,13.5,30.07,West,271,0.0,0.0,74,0.00,CLR,CLR,0.00,0.0,WeatherDisplay:10.37,2013-03-22 08:19:00,
2013-03-22 04:29:00,20.5,13.8,30.07,West,271,0.0,0.0,75,0.00,CLR,CLR,0.00,0.0,WeatherDisplay:10.37,2013-03-22 08:29:00,
2013-03-22 04:34:00,20.4,13.7,30.07,West,271,0.0,0.0,75,0.00,CLR,CLR,0.00,0.0,WeatherDisplay:10.37,2013-03-22 08:34:00,
2013-03-22 04:40:00,20.4,13.7,30.07,West,271,0.0,0.0,75,0.00,CLR,CLR,0.00,0.0,WeatherDisplay:10.37,2013-03-22 08:40:00,
2013-03-22 04:49:00,20.5,13.8,30.06,West,271,0.0,0.0,75,0.00,CLR,CLR,0.00,0.0,WeatherDisplay:10.37,2013-03-22 08:49:00,
2013-03-22 04:54:00,20.7,14.4,30.06,West,271,0.0,1.0,76,0.00,CLR,CLR,0.00,0.0,WeatherDisplay:10.37,2013-03-22 08:54:00,
2013-03-22 04:59:00,21.0,14.7,30.06,West,271,0.0,0.0,76,0.00,CLR,CLR,0.00,0.0,WeatherDisplay:10.37,2013-03-22 08:59:00,
2013-03-22 05:09:00,21.7,15.0,30.06,West,271,0.0,1.0,75,0.00,CLR,CLR,0.00,0.0,WeatherDisplay:10.37,2013-03-22 09:09:00,
2013-03-22 05:14:00,21.8,14.7,30.07,West,271,0.0,0.0,74,0.00,CLR,CLR,0.00,0.0,WeatherDisplay:10.37,2013-03-22 09:14:00,
2013-03-22 05:24:00,22.1,15.1,30.07,West,271,0.0,0.0,74,0.00,CLR,CLR,0.00,0.0,WeatherDisplay:10.37,2013-03-22 09:24:00,
2013-03-22 05:29:00,22.2,14.5,30.07,West,271,0.0,0.0,72,0.00,CLR,CLR,0.00,0.0,WeatherDisplay:10.37,2013-03-22 09:29:00,
2013-03-22 05:34:00,22.3,14.6,30.07,West,271,0.0,0.0,72,0.00,CLR,CLR,0.00,0.0,WeatherDisplay:10.37,2013-03-22 09:34:00,
2013-03-22 05:39:00,22.5,15.1,30.07,West,271,0.0,0.0,73,0.00,CLR,CLR,0.00,0.0,WeatherDisplay:10.37,2013-03-22 09:39:00,
2013-03-22 05:50:00,22.9,14.6,30.07,West,271,0.0,1.0,70,0.00,CLR,CLR,0.00,0.0,WeatherDisplay:10.37,2013-03-22 09:50:00,
2013-03-22 05:54:00,23.0,15.0,30.07,West,271,0.0,0.0,71,0.00,CLR,CLR,0.00,0.0,WeatherDisplay:10.37,2013-03-22 09:54:00,
2013-03-22 05:59:00,23.3,14.6,30.08,WSW,252,0.0,3.0,69,0.00,CLR,CLR,0.00,0.0,WeatherDisplay:10.37,2013-03-22 09:59:00,
2013-03-22 06:04:00,24.4,13.6,30.08,WSW,240,1.0,6.0,63,0.00,CLR,CLR,0.00,0.0,WeatherDisplay:10.37,2013-03-22 10:04:00,
2013-03-22 06:09:00,25.1,13.9,30.08,WSW,240,1.0,4.0,62,0.00,CLR,CLR,0.00,0.0,WeatherDisplay:10.37,2013-03-22 10:09:00,
2013-03-22 06:20:00,25.6,15.1,30.08,SW,224,0.0,3.0,64,0.00,CLR,CLR,0.00,0.0,WeatherDisplay:10.37,2013-03-22 10:20:00,
2013-03-22 06:29:00,25.2,15.4,30.09,SW,223,0.0,0.0,66,0.00,CLR,CLR,0.00,0.0,WeatherDisplay:10.37,2013-03-22 10:29:00,
2013-03-22 06:39:00,24.3,15.3,30.09,SW,223,0.0,0.0,68,0.00,CLR,CLR,0.00,0.0,WeatherDisplay:10.37,2013-03-22 10:39:00,
2013-03-22 06:44:00,23.9,15.2,30.09,SW,223,0.0,0.0,69,0.00,CLR,CLR,0.00,0.0,WeatherDisplay:10.37,2013-03-22 10:44:00,
2013-03-22 06:49:00,23.7,15.0,30.10,SW,223,0.0,0.0,69,0.00,CLR,CLR,0.00,0.0,WeatherDisplay:10.37,2013-03-22 10:49:00,
2013-03-22 06:54:00,23.6,15.2,30.10,SW,223,0.0,0.0,70,0.00,CLR,CLR,0.00,0.0,WeatherDisplay:10.37,2013-03-22 10:54:00,
2013-03-22 06:59:00,23.7,14.4,30.10,SW,223,0.0,1.0,67,0.00,CLR,CLR,0.00,0.0,WeatherDisplay:10.37,2013-03-22 10:59:00,
2013-03-22 07:04:00,24.3,13.9,30.10,SW,223,0.0,1.0,64,0.00,OVC,OVC,0.00,0.0,WeatherDisplay:10.37,2013-03-22 11:04:00,
2013-03-22 07:10:00,24.7,13.1,30.10,SW,223,0.0,0.0,61,0.00,OVC,OVC,0.00,0.0,WeatherDisplay:10.37,2013-03-22 11:10:00,
2013-03-22 07:14:00,25.1,12.8,30.10,SW,223,0.0,1.0,59,0.00,OVC,OVC,0.00,0.0,WeatherDisplay:10.37,2013-03-22 11:14:00,
2013-03-22 07:19:00,25.6,12.5,30.10,SW,223,0.0,3.0,57,0.00,OVC,OVC,0.00,0.0,WeatherDisplay:10.37,2013-03-22 11:19:00,
2013-03-22 07:24:00,25.9,12.3,30.10,SW,223,0.0,2.0,56,0.00,OVC,OVC,0.00,0.0,WeatherDisplay:10.37,2013-03-22 11:24:00,
2013-03-22 07:29:00,26.1,12.9,30.11,SW,223,0.0,1.0,57,0.00,OVC,OVC,0.00,5.0,WeatherDisplay:10.37,2013-03-22 11:29:00,
2013-03-22 07:34:00,26.1,12.5,30.10,SW,223,0.0,0.0,56,0.00,OVC,OVC,0.00,5.0,WeatherDisplay:10.37,2013-03-22 11:34:00,
2013-03-22 07:40:00,25.9,11.9,30.10,SW,223,0.0,1.0,55,0.00,FEW,FEW,0.00,9.0,WeatherDisplay:10.37,2013-03-22 11:40:00,
2013-03-22 07:44:00,25.9,11.9,30.11,SSW,205,0.0,3.0,55,0.00,SCT,SCT,0.00,14.0,WeatherDisplay:10.37,2013-03-22 11:44:00,
2013-03-22 07:50:00,25.9,11.9,30.11,South,182,0.0,1.0,55,0.00,BKN,BKN,0.00,16.0,WeatherDisplay:10.37,2013-03-22 11:50:00,
2013-03-22 07:59:00,26.1,12.1,30.11,South,178,0.0,2.0,55,0.00,OVC,OVC,0.00,16.0,WeatherDisplay:10.37,2013-03-22 11:59:00,
2013-03-22 08:04:00,26.2,12.2,30.11,SSE,168,0.0,3.0,55,0.00,OVC,OVC,0.00,26.0,WeatherDisplay:10.37,2013-03-22 12:04:00,
2013-03-22 08:09:00,26.3,12.7,30.11,SSE,158,0.0,1.0,56,0.00,BKN,BKN,0.00,39.0,WeatherDisplay:10.37,2013-03-22 12:09:00,
2013-03-22 08:19:00,26.6,12.6,30.11,SE,146,0.0,2.0,55,0.00,BKN,BKN,0.00,54.0,WeatherDisplay:10.37,2013-03-22 12:19:00,
2013-03-22 08:24:00,26.7,13.5,30.11,SE,146,0.0,1.0,57,0.00,OVC,OVC,0.00,44.0,WeatherDisplay:10.37,2013-03-22 12:24:00,
2013-03-22 08:29:00,26.9,12.8,30.11,SSE,152,0.0,4.0,55,0.00,OVC,OVC,0.00,35.0,WeatherDisplay:10.37,2013-03-22 12:29:00,
2013-03-22 08:34:00,26.9,12.5,30.11,South,179,5.0,7.0,54,0.00,OVC,OVC,0.00,37.0,WeatherDisplay:10.37,2013-03-22 12:34:00,
2013-03-22 08:39:00,27.1,13.1,30.11,SSW,198,0.0,4.0,55,0.00,OVC,OVC,0.00,53.0,WeatherDisplay:10.37,2013-03-22 12:39:00,
2013-03-22 08:44:00,27.2,12.3,30.11,SW,222,1.0,5.0,53,0.00,OVC,OVC,0.00,72.0,WeatherDisplay:10.37,2013-03-22 12:44:00,
2013-03-22 08:49:00,27.4,12.9,30.11,SW,229,1.0,7.0,54,0.00,OVC,OVC,0.00,62.0,WeatherDisplay:10.37,2013-03-22 12:49:00,
2013-03-22 08:59:00,27.6,12.3,30.12,SW,224,0.0,4.0,52,0.00,BKN,BKN,0.00,95.0,WeatherDisplay:10.37,2013-03-22 12:59:00,
2013-03-22 09:09:00,28.0,13.1,30.11,SW,234,1.0,3.0,53,0.00,SCT,SCT,0.00,190.0,WeatherDisplay:10.37,2013-03-22 13:09:00,
2013-03-22 09:14:00,28.3,13.3,30.12,SW,236,0.0,4.0,53,0.00,SCT,SCT,0.00,190.0,WeatherDisplay:10.37,2013-03-22 13:14:00,
2013-03-22 09:19:00,28.6,14.1,30.12,WSW,240,0.0,4.0,54,0.00,SCT,SCT,0.00,176.0,WeatherDisplay:10.37,2013-03-22 13:19:00,
2013-03-22 09:24:00,28.9,13.9,30.12,SW,230,0.0,3.0,53,0.00,BKN,BKN,0.00,171.0,WeatherDisplay:10.37,2013-03-22 13:24:00,
2013-03-22 09:29:00,29.1,14.0,30.12,SW,226,1.0,5.0,53,0.00,BKN,BKN,0.00,163.0,WeatherDisplay:10.37,2013-03-22 13:29:00,
2013-03-22 09:34:00,29.1,14.5,30.12,SW,231,1.0,5.0,54,0.00,BKN,BKN,0.00,169.0,WeatherDisplay:10.37,2013-03-22 13:34:00,
2013-03-22 09:39:00,29.1,14.1,30.12,SW,231,0.0,4.0,53,0.00,BKN,BKN,0.00,153.0,WeatherDisplay:10.37,2013-03-22 13:39:00,
2013-03-22 09:44:00,29.2,14.2,30.12,SW,230,1.0,6.0,53,0.00,OVC,OVC,0.00,121.0,WeatherDisplay:10.37,2013-03-22 13:44:00,
2013-03-22 09:49:00,29.2,14.6,30.12,WSW,237,0.0,5.0,54,0.00,OVC,OVC,0.00,128.0,WeatherDisplay:10.37,2013-03-22 13:49:00,
2013-03-22 09:54:00,29.3,14.3,30.13,WSW,246,0.0,4.0,53,0.00,OVC,OVC,0.00,127.0,WeatherDisplay:10.37,2013-03-22 13:54:00,
2013-03-22 09:59:00,29.7,14.6,30.12,SW,214,0.0,4.0,53,0.00,OVC,OVC,0.00,144.0,WeatherDisplay:10.37,2013-03-22 13:59:00,
2013-03-22 10:04:00,29.9,14.4,30.12,SSW,196,0.0,5.0,52,0.00,OVC,OVC,0.00,165.0,WeatherDisplay:10.37,2013-03-22 14:04:00,
2013-03-22 10:09:00,30.0,14.5,30.12,SSW,208,0.0,2.0,52,0.00,OVC,OVC,0.00,169.0,WeatherDisplay:10.37,2013-03-22 14:09:00,
2013-03-22 10:14:00,30.2,14.2,30.12,SSW,210,1.0,4.0,51,0.00,OVC,OVC,0.00,185.0,WeatherDisplay:10.37,2013-03-22 14:14:00,
2013-03-22 10:19:00,30.3,13.9,30.12,SW,232,0.0,3.0,50,0.00,OVC,OVC,0.00,199.0,WeatherDisplay:10.37,2013-03-22 14:19:00,
2013-03-22 10:24:00,30.5,14.0,30.12,WSW,242,0.0,2.0,50,0.00,OVC,OVC,0.00,172.0,WeatherDisplay:10.37,2013-03-22 14:24:00,
2013-03-22 10:29:00,30.6,15.0,30.12,WSW,242,0.0,1.0,52,0.00,OVC,OVC,0.00,179.0,WeatherDisplay:10.37,2013-03-22 14:29:00,
2013-03-22 10:39:00,31.6,15.5,30.12,South,172,0.0,1.0,51,0.00,OVC,OVC,0.00,239.0,WeatherDisplay:10.37,2013-03-22 14:39:00,
2013-03-22 10:44:00,31.9,15.8,30.12,South,170,0.0,3.0,51,0.00,BKN,BKN,0.00,262.0,WeatherDisplay:10.37,2013-03-22 14:44:00,
2013-03-22 10:49:00,32.1,16.8,30.12,South,169,0.0,1.0,53,0.00,BKN,BKN,0.00,297.0,WeatherDisplay:10.37,2013-03-22 14:49:00,
2013-03-22 10:54:00,32.5,16.4,30.12,SSE,157,0.0,4.0,51,0.00,BKN,BKN,0.00,294.0,WeatherDisplay:10.37,2013-03-22 14:54:00,
2013-03-22 11:04:00,33.1,16.4,30.12,ESE,114,0.0,3.0,50,0.00,SCT,SCT,0.00,471.0,WeatherDisplay:10.37,2013-03-22 15:04:00,
2013-03-22 11:10:00,33.4,17.2,30.11,East,99,1.0,3.0,51,0.00,SCT,SCT,0.00,480.0,WeatherDisplay:10.37,2013-03-22 15:10:00,
2013-03-22 11:19:00,34.1,17.9,30.11,East,89,1.0,5.0,51,0.00,CLR,CLR,0.00,677.0,WeatherDisplay:10.37,2013-03-22 15:19:00,
2013-03-22 11:24:00,35.3,17.5,30.11,East,82,0.0,5.0,48,0.00,CLR,CLR,0.00,816.0,WeatherDisplay:10.37,2013-03-22 15:24:00,
2013-03-22 11:30:00,36.3,19.0,30.11,ENE,75,0.0,4.0,49,0.00,CLR,CLR,0.00,849.0,WeatherDisplay:10.37,2013-03-22 15:30:00,
2013-03-22 11:39:00,37.3,18.4,30.10,East,95,1.0,7.0,46,0.00,CLR,CLR,0.00,1056.0,WeatherDisplay:10.37,2013-03-22 15:39:00,
2013-03-22 11:44:00,36.7,18.8,30.11,NE,34,5.0,12.0,48,0.00,CLR,CLR,0.00,1014.0,WeatherDisplay:10.37,2013-03-22 15:44:00,
2013-03-22 11:49:00,36.0,18.2,30.11,ENE,74,6.0,12.0,48,0.00,CLR,CLR,0.00,898.0,WeatherDisplay:10.37,2013-03-22 15:49:00,
2013-03-22 11:54:00,35.6,18.3,30.10,East,93,5.0,9.0,49,0.00,CLR,CLR,0.00,851.0,WeatherDisplay:10.37,2013-03-22 15:54:00,
2013-03-22 12:04:00,35.6,18.3,30.10,East,85,5.0,10.0,49,0.00,CLR,CLR,0.00,946.0,WeatherDisplay:10.37,2013-03-22 16:04:00,
2013-03-22 12:09:00,36.1,18.3,30.11,ENE,72,5.0,10.0,48,0.00,FEW,FEW,0.00,671.0,WeatherDisplay:10.37,2013-03-22 16:09:00,
2013-03-22 12:19:00,35.6,16.8,30.11,East,80,3.0,9.0,46,0.00,SCT,SCT,0.00,652.0,WeatherDisplay:10.37,2013-03-22 16:19:00,
2013-03-22 12:24:00,35.7,17.4,30.11,East,91,2.0,9.0,47,0.00,SCT,SCT,0.00,638.0,WeatherDisplay:10.37,2013-03-22 16:24:00,
2013-03-22 12:29:00,36.2,17.9,30.10,East,95,1.0,10.0,47,0.00,CLR,CLR,0.00,1028.0,WeatherDisplay:10.37,2013-03-22 16:29:00,
2013-03-22 12:34:00,37.7,19.2,30.10,East,95,2.0,12.0,47,0.00,CLR,CLR,0.00,1130.0,WeatherDisplay:10.37,2013-03-22 16:34:00,
2013-03-22 12:40:00,38.5,18.4,30.10,East,87,2.0,9.0,44,0.00,CLR,CLR,0.00,1086.0,WeatherDisplay:10.37,2013-03-22 16:40:00,
2013-03-22 12:44:00,39.2,18.0,30.10,East,93,3.0,7.0,42,0.00,CLR,CLR,0.00,932.0,WeatherDisplay:10.37,2013-03-22 16:44:00,
2013-03-22 12:54:00,40.8,17.8,30.10,SSE,152,0.0,6.0,39,0.00,SCT,SCT,0.00,691.0,WeatherDisplay:10.37,2013-03-22 16:54:00,
2013-03-22 12:59:00,41.3,18.2,30.09,SSE,159,5.0,12.0,39,0.00,SCT,SCT,0.00,633.0,WeatherDisplay:10.37,2013-03-22 16:59:00,
2013-03-22 13:09:00,40.9,17.8,30.10,ESE,110,3.0,8.0,39,0.00,BKN,BKN,0.00,471.0,WeatherDisplay:10.37,2013-03-22 17:09:00,
2013-03-22 13:14:00,40.7,18.2,30.09,East,84,5.0,9.0,40,0.00,SCT,SCT,0.00,643.0,WeatherDisplay:10.37,2013-03-22 17:14:00,
2013-03-22 13:19:00,41.0,16.1,30.09,South,188,2.0,12.0,36,0.00,SCT,SCT,0.00,612.0,WeatherDisplay:10.37,2013-03-22 17:19:00,
2013-03-22 13:24:00,41.2,16.3,30.09,SSW,209,0.0,12.0,36,0.00,BKN,BKN,0.00,480.0,WeatherDisplay:10.37,2013-03-22 17:24:00,
2013-03-22 13:34:00,42.2,17.7,30.10,SW,231,5.0,12.0,37,0.00,SCT,SCT,0.00,605.0,WeatherDisplay:10.37,2013-03-22 17:34:00,
2013-03-22 13:39:00,41.7,17.9,30.10,SSW,207,3.0,12.0,38,0.00,BKN,BKN,0.00,427.0,WeatherDisplay:10.37,2013-03-22 17:39:00,
2013-03-22 13:44:00,41.5,17.1,30.11,SW,229,2.0,10.0,37,0.00,OVC,OVC,0.00,336.0,WeatherDisplay:10.37,2013-03-22 17:44:00,
2013-03-22 13:49:00,41.1,17.4,30.11,WSW,239,1.0,10.0,38,0.00,OVC,OVC,0.00,239.0,WeatherDisplay:10.37,2013-03-22 17:49:00,
2013-03-22 13:54:00,40.0,18.2,30.11,SW,236,2.0,12.0,41,0.00,OVC,OVC,0.00,360.0,WeatherDisplay:10.37,2013-03-22 17:54:00,
2013-03-22 13:59:00,39.1,18.0,30.11,West,259,6.0,12.0,42,0.00,BKN,BKN,0.00,399.0,WeatherDisplay:10.37,2013-03-22 17:59:00,
2013-03-22 14:04:00,39.1,18.4,30.11,West,264,3.0,9.0,43,0.00,BKN,BKN,0.00,376.0,WeatherDisplay:10.37,2013-03-22 18:04:00,
2013-03-22 14:14:00,38.7,18.7,30.11,WSW,249,1.0,12.0,44,0.00,OVC,OVC,0.00,332.0,WeatherDisplay:10.37,2013-03-22 18:14:00,
2013-03-22 14:19:00,38.8,18.7,30.10,WSW,246,3.0,9.0,44,0.00,OVC,OVC,0.00,311.0,WeatherDisplay:10.37,2013-03-22 18:19:00,
2013-03-22 14:24:00,38.9,18.8,30.10,WSW,242,3.0,10.0,44,0.00,OVC,OVC,0.00,248.0,WeatherDisplay:10.37,2013-03-22 18:24:00,
2013-03-22 14:29:00,38.9,18.8,30.10,WSW,240,3.0,10.0,44,0.00,OVC,OVC,0.00,264.0,WeatherDisplay:10.37,2013-03-22 18:29:00,
2013-03-22 14:34:00,39.0,18.9,30.10,SW,234,5.0,12.0,44,0.00,BKN,BKN,0.00,380.0,WeatherDisplay:10.37,2013-03-22 18:34:00,
2013-03-22 14:39:00,39.3,19.7,30.10,SW,233,5.0,12.0,45,0.00,BKN,BKN,0.00,367.0,WeatherDisplay:10.37,2013-03-22 18:39:00,
2013-03-22 14:44:00,39.5,19.3,30.09,SW,226,3.0,6.0,44,0.00,OVC,OVC,0.00,316.0,WeatherDisplay:10.37,2013-03-22 18:44:00,
2013-03-22 14:49:00,40.2,19.4,30.10,SW,231,3.0,9.0,43,0.00,BKN,BKN,0.00,429.0,WeatherDisplay:10.37,2013-03-22 18:49:00,
2013-03-22 14:59:00,41.4,20.5,30.09,SW,234,5.0,12.0,43,0.00,SCT,SCT,0.00,606.0,WeatherDisplay:10.37,2013-03-22 18:59:00,
2013-03-22 15:04:00,41.6,20.2,30.09,WSW,237,7.0,10.0,42,0.00,BKN,BKN,0.00,438.0,WeatherDisplay:10.37,2013-03-22 19:04:00,
2013-03-22 15:10:00,41.3,19.9,30.09,WSW,240,8.0,12.0,42,0.00,SCT,SCT,0.00,471.0,WeatherDisplay:10.37,2013-03-22 19:10:00,
2013-03-22 15:14:00,41.2,19.8,30.09,WSW,242,7.0,15.0,42,0.00,BKN,BKN,0.00,392.0,WeatherDisplay:10.37,2013-03-22 19:14:00,
2013-03-22 15:19:00,41.1,19.7,30.10,SW,231,5.0,10.0,42,0.00,OVC,OVC,0.00,271.0,WeatherDisplay:10.37,2013-03-22 19:19:00,
2013-03-22 15:24:00,40.9,20.1,30.09,SW,215,3.0,12.0,43,0.00,OVC,OVC,0.00,248.0,WeatherDisplay:10.37,2013-03-22 19:24:00,
2013-03-22 15:29:00,40.9,20.1,30.09,SW,233,3.0,9.0,43,0.00,OVC,OVC,0.00,146.0,WeatherDisplay:10.37,2013-03-22 19:29:00,
2013-03-22 15:39:00,40.8,20.5,30.09,SW,217,1.0,5.0,44,0.00,OVC,OVC,0.00,192.0,WeatherDisplay:10.37,2013-03-22 19:39:00,
2013-03-22 15:44:00,40.7,21.0,30.09,SW,220,2.0,5.0,45,0.00,OVC,OVC,0.00,186.0,WeatherDisplay:10.37,2013-03-22 19:44:00,
2013-03-22 15:50:00,40.4,20.7,30.09,SSW,206,1.0,12.0,45,0.00,OVC,OVC,0.00,179.0,WeatherDisplay:10.37,2013-03-22 19:50:00,
2013-03-22 15:59:00,40.3,20.6,30.09,SSW,207,1.0,7.0,45,0.00,OVC,OVC,0.00,183.0,WeatherDisplay:10.37,2013-03-22 19:59:00,
2013-03-22 16:04:00,40.5,20.3,30.09,SSW,213,3.0,9.0,44,0.00,OVC,OVC,0.00,195.0,WeatherDisplay:10.37,2013-03-22 20:04:00,
2013-03-22 16:14:00,40.7,21.0,30.08,SSW,201,1.0,7.0,45,0.00,OVC,OVC,0.00,236.0,WeatherDisplay:10.37,2013-03-22 20:14:00,
2013-03-22 16:19:00,40.9,20.6,30.09,SW,216,1.0,5.0,44,0.00,OVC,OVC,0.00,153.0,WeatherDisplay:10.37,2013-03-22 20:19:00,
2013-03-22 16:24:00,41.1,21.3,30.08,SW,224,1.0,4.0,45,0.00,OVC,OVC,0.00,202.0,WeatherDisplay:10.37,2013-03-22 20:24:00,
2013-03-22 16:34:00,41.1,20.8,30.08,SW,214,0.0,3.0,44,0.00,OVC,OVC,0.00,121.0,WeatherDisplay:10.37,2013-03-22 20:34:00,
2013-03-22 16:39:00,41.1,20.8,30.08,SW,233,1.0,6.0,44,0.00,OVC,OVC,0.00,125.0,WeatherDisplay:10.37,2013-03-22 20:39:00,
2013-03-22 16:44:00,41.1,20.8,30.08,WSW,247,0.0,6.0,44,0.00,OVC,OVC,0.00,172.0,WeatherDisplay:10.37,2013-03-22 20:44:00,
2013-03-22 16:49:00,41.4,21.6,30.09,WSW,246,2.0,6.0,45,0.00,OVC,OVC,0.00,174.0,WeatherDisplay:10.37,2013-03-22 20:49:00,
2013-03-22 16:54:00,41.7,21.9,30.08,SW,235,2.0,5.0,45,0.00,OVC,OVC,0.00,181.0,WeatherDisplay:10.37,2013-03-22 20:54:00,
2013-03-22 17:04:00,41.3,21.5,30.08,SSE,166,1.0,5.0,45,0.00,BKN,BKN,0.00,225.0,WeatherDisplay:10.37,2013-03-22 21:04:00,
2013-03-22 17:09:00,41.6,22.3,30.08,SSE,167,0.0,4.0,46,0.00,BKN,BKN,0.00,207.0,WeatherDisplay:10.37,2013-03-22 21:09:00,
2013-03-22 17:19:00,42.6,23.2,30.07,SSW,206,0.0,5.0,46,0.00,OVC,OVC,0.00,171.0,WeatherDisplay:10.37,2013-03-22 21:19:00,
2013-03-22 17:24:00,42.7,23.4,30.08,SSW,206,1.0,4.0,46,0.00,OVC,OVC,0.00,141.0,WeatherDisplay:10.37,2013-03-22 21:24:00,
2013-03-22 17:30:00,42.9,23.6,30.08,SW,214,0.0,2.0,46,0.00,OVC,OVC,0.00,142.0,WeatherDisplay:10.37,2013-03-22 21:30:00,
2013-03-22 17:34:00,43.1,23.7,30.08,SW,224,2.0,5.0,46,0.00,OVC,OVC,0.00,127.0,WeatherDisplay:10.37,2013-03-22 21:34:00,
2013-03-22 17:39:00,43.0,24.2,30.08,SW,224,0.0,4.0,47,0.00,OVC,OVC,0.00,113.0,WeatherDisplay:10.37,2013-03-22 21:39:00,
2013-03-22 17:44:00,43.1,24.2,30.08,SSW,207,0.0,6.0,47,0.00,OVC,OVC,0.00,113.0,WeatherDisplay:10.37,2013-03-22 21:44:00,
2013-03-22 17:49:00,43.1,24.2,30.08,SSW,208,1.0,3.0,47,0.00,OVC,OVC,0.00,97.0,WeatherDisplay:10.37,2013-03-22 21:49:00,
2013-03-22 17:54:00,43.1,24.2,30.08,WSW,242,2.0,5.0,47,0.00,OVC,OVC,0.00,81.0,WeatherDisplay:10.37,2013-03-22 21:54:00,
2013-03-22 17:59:00,43.1,23.7,30.08,WSW,245,0.0,6.0,46,0.00,OVC,OVC,0.00,84.0,WeatherDisplay:10.37,2013-03-22 21:59:00,
2013-03-22 18:04:00,43.1,24.2,30.08,SW,229,1.0,5.0,47,0.00,OVC,OVC,0.00,84.0,WeatherDisplay:10.37,2013-03-22 22:04:00,
2013-03-22 18:09:00,43.1,23.7,30.08,SW,225,1.0,6.0,46,0.00,OVC,OVC,0.00,69.0,WeatherDisplay:10.37,2013-03-22 22:09:00,
2013-03-22 18:14:00,43.1,24.2,30.08,SSW,212,3.0,8.0,47,0.00,OVC,OVC,0.00,67.0,WeatherDisplay:10.37,2013-03-22 22:14:00,
2013-03-22 18:24:00,43.0,24.1,30.08,SSW,209,1.0,9.0,47,0.00,BKN,BKN,0.00,90.0,WeatherDisplay:10.37,2013-03-22 22:24:00,
2013-03-22 18:29:00,42.9,24.0,30.08,SSW,212,1.0,7.0,47,0.00,BKN,BKN,0.00,83.0,WeatherDisplay:10.37,2013-03-22 22:29:00,
2013-03-22 18:35:00,42.7,23.3,30.09,SSW,207,1.0,6.0,46,0.00,OVC,OVC,0.00,65.0,WeatherDisplay:10.37,2013-03-22 22:35:00,
2013-03-22 18:44:00,42.2,23.4,30.08,SSW,208,1.0,7.0,47,0.00,BKN,BKN,0.00,77.0,WeatherDisplay:10.37,2013-03-22 22:44:00,
2013-03-22 18:49:00,42.3,24.0,30.08,SSW,205,2.0,5.0,48,0.00,BKN,BKN,0.00,69.0,WeatherDisplay:10.37,2013-03-22 22:49:00,
2013-03-22 18:54:00,42.3,24.0,30.08,SSW,211,1.0,4.0,48,0.00,BKN,BKN,0.00,62.0,WeatherDisplay:10.37,2013-03-22 22:54:00,
2013-03-22 18:59:00,42.1,23.3,30.09,SW,218,3.0,5.0,47,0.00,BKN,BKN,0.00,46.0,WeatherDisplay:10.37,2013-03-22 22:59:00,
2013-03-22 19:04:00,42.0,24.2,30.09,SW,224,3.0,7.0,49,0.00,BKN,BKN,0.00,40.0,WeatherDisplay:10.37,2013-03-22 23:04:00,
2013-03-22 19:09:00,41.8,23.5,30.09,SW,234,3.0,5.0,48,0.00,BKN,BKN,0.00,39.0,WeatherDisplay:10.37,2013-03-22 23:09:00,
2013-03-22 19:20:00,41.5,23.8,30.09,SW,218,0.0,3.0,49,0.00,BKN,BKN,0.00,30.0,WeatherDisplay:10.37,2013-03-22 23:20:00,
2013-03-22 19:24:00,41.4,23.6,30.09,SW,214,0.0,3.0,49,0.00,BKN,BKN,0.00,21.0,WeatherDisplay:10.37,2013-03-22 23:24:00,
2013-03-22 19:29:00,41.1,23.4,30.09,SW,215,0.0,4.0,49,0.00,OVC,OVC,0.00,11.0,WeatherDisplay:10.37,2013-03-22 23:29:00,
2013-03-22 19:34:00,40.8,23.6,30.10,SW,215,0.0,4.0,50,0.00,OVC,OVC,0.00,7.0,WeatherDisplay:10.37,2013-03-22 23:34:00,
2013-03-22 19:39:00,40.5,22.8,30.10,SW,215,0.0,4.0,49,0.00,BKN,BKN,0.00,5.0,WeatherDisplay:10.37,2013-03-22 23:39:00,
2013-03-22 19:44:00,40.1,23.0,30.10,SW,214,1.0,3.0,50,0.00,OVC,OVC,0.00,0.0,WeatherDisplay:10.37,2013-03-22 23:44:00,
2013-03-22 19:54:00,39.6,23.4,30.10,SW,215,0.0,1.0,52,0.00,OVC,OVC,0.00,0.0,WeatherDisplay:10.37,2013-03-22 23:54:00,
2013-03-22 19:59:00,39.2,23.9,30.10,SW,215,0.0,0.0,54,0.00,CLR,CLR,0.00,0.0,WeatherDisplay:10.37,2013-03-22 23:59:00,
2013-03-22 20:04:00,38.7,23.5,30.11,SW,215,0.0,0.0,54,0.00,CLR,CLR,0.00,0.0,WeatherDisplay:10.37,2013-03-23 00:04:00,
2013-03-22 20:09:00,38.4,23.6,30.11,SW,215,0.0,0.0,55,0.00,CLR,CLR,0.00,0.0,WeatherDisplay:10.37,2013-03-23 00:09:00,
2013-03-22 20:19:00,37.9,23.5,30.11,SW,215,0.0,0.0,56,0.00,CLR,CLR,0.00,0.0,WeatherDisplay:10.37,2013-03-23 00:19:00,
2013-03-22 20:24:00,37.6,22.9,30.11,SW,214,0.0,0.0,55,0.00,CLR,CLR,0.00,0.0,WeatherDisplay:10.37,2013-03-23 00:24:00,
2013-03-22 20:29:00,37.5,23.2,30.11,SW,215,0.0,1.0,56,0.00,CLR,CLR,0.00,0.0,WeatherDisplay:10.37,2013-03-23 00:29:00,
2013-03-22 20:34:00,37.4,23.5,30.11,SW,215,0.0,0.0,57,0.00,CLR,CLR,0.00,0.0,WeatherDisplay:10.37,2013-03-23 00:34:00,
2013-03-22 20:39:00,37.3,23.4,30.11,SW,215,0.0,1.0,57,0.00,CLR,CLR,0.00,0.0,WeatherDisplay:10.37,2013-03-23 00:39:00,
2013-03-22 20:49:00,37.1,22.8,30.11,SW,215,0.0,0.0,56,0.00,CLR,CLR,0.00,0.0,WeatherDisplay:10.37,2013-03-23 00:49:00,
2013-03-22 20:59:00,37.3,23.0,30.11,SW,215,0.0,1.0,56,0.00,CLR,CLR,0.00,0.0,WeatherDisplay:10.37,2013-03-23 00:59:00,
2013-03-22 21:04:00,37.4,23.1,30.11,SW,215,0.0,1.0,56,0.00,CLR,CLR,0.00,0.0,WeatherDisplay:10.37,2013-03-23 01:04:00,
2013-03-22 21:14:00,37.4,24.0,30.12,SW,215,0.0,1.0,58,0.00,CLR,CLR,0.00,0.0,WeatherDisplay:10.37,2013-03-23 01:14:00,
2013-03-22 21:19:00,37.2,24.2,30.12,SW,214,0.0,1.0,59,0.00,CLR,CLR,0.00,0.0,WeatherDisplay:10.37,2013-03-23 01:19:00,
2013-03-22 21:29:00,36.9,23.5,30.12,SW,215,0.0,0.0,58,0.00,CLR,CLR,0.00,0.0,WeatherDisplay:10.37,2013-03-23 01:29:00,
2013-03-22 21:34:00,36.8,23.4,30.12,SW,214,0.0,1.0,58,0.00,CLR,CLR,0.00,0.0,WeatherDisplay:10.37,2013-03-23 01:34:00,
2013-03-22 21:39:00,36.9,23.0,30.12,SW,214,0.0,2.0,57,0.00,CLR,CLR,0.00,0.0,WeatherDisplay:10.37,2013-03-23 01:39:00,
2013-03-22 21:49:00,37.1,23.3,30.13,SW,215,0.0,3.0,57,0.00,CLR,CLR,0.00,0.0,WeatherDisplay:10.37,2013-03-23 01:49:00,
2013-03-22 21:54:00,37.1,23.3,30.13,SW,215,0.0,0.0,57,0.00,CLR,CLR,0.00,0.0,WeatherDisplay:10.37,2013-03-23 01:54:00,
2013-03-22 21:59:00,37.2,23.7,30.13,SW,215,0.0,1.0,58,0.00,CLR,CLR,0.00,0.0,WeatherDisplay:10.37,2013-03-23 01:59:00,
2013-03-22 22:09:00,37.3,23.9,30.12,SW,215,0.0,1.0,58,0.00,CLR,CLR,0.00,0.0,WeatherDisplay:10.37,2013-03-23 02:09:00,
2013-03-22 22:14:00,37.4,24.0,30.13,SW,215,0.0,0.0,58,0.00,CLR,CLR,0.00,0.0,WeatherDisplay:10.37,2013-03-23 02:14:00,
2013-03-22 22:20:00,37.5,24.0,30.13,SW,215,0.0,1.0,58,0.00,CLR,CLR,0.00,0.0,WeatherDisplay:10.37,2013-03-23 02:20:00,
2013-03-22 22:29:00,37.5,24.9,30.12,SW,215,0.0,0.0,60,0.00,CLR,CLR,0.00,0.0,WeatherDisplay:10.37,2013-03-23 02:29:00,
2013-03-22 22:34:00,37.6,24.1,30.12,SW,215,0.0,0.0,58,0.00,CLR,CLR,0.00,0.0,WeatherDisplay:10.37,2013-03-23 02:34:00,
2013-03-22 22:39:00,37.6,24.6,30.12,SW,215,0.0,1.0,59,0.00,CLR,CLR,0.00,0.0,WeatherDisplay:10.37,2013-03-23 02:39:00,
2013-03-22 22:49:00,37.6,25.0,30.13,SW,215,0.0,0.0,60,0.00,CLR,CLR,0.00,0.0,WeatherDisplay:10.37,2013-03-23 02:49:00,
2013-03-22 22:54:00,37.6,24.9,30.13,SW,215,0.0,1.0,60,0.00,CLR,CLR,0.00,0.0,WeatherDisplay:10.37,2013-03-23 02:54:00,
2013-03-22 23:04:00,37.7,25.1,30.13,SW,215,1.0,3.0,60,0.00,CLR,CLR,0.00,0.0,WeatherDisplay:10.37,2013-03-23 03:04:00,
2013-03-22 23:09:00,37.9,24.8,30.13,SW,215,0.0,3.0,59,0.00,CLR,CLR,0.00,0.0,WeatherDisplay:10.37,2013-03-23 03:09:00,
2013-03-22 23:14:00,38.0,25.3,30.13,SW,215,0.0,2.0,60,0.00,CLR,CLR,0.00,0.0,WeatherDisplay:10.37,2013-03-23 03:14:00,
2013-03-22 23:19:00,37.9,25.7,30.13,SW,215,0.0,0.0,61,0.00,CLR,CLR,0.00,0.0,WeatherDisplay:10.37,2013-03-23 03:19:00,
2013-03-22 23:24:00,37.8,25.9,30.12,SW,215,0.0,0.0,62,0.00,CLR,CLR,0.00,0.0,WeatherDisplay:10.37,2013-03-23 03:24:00,
2013-03-22 23:29:00,37.7,25.5,30.12,SW,215,0.0,0.0,61,0.00,CLR,CLR,0.00,0.0,WeatherDisplay:10.37,2013-03-23 03:29:00,
2013-03-22 23:34:00,37.8,25.9,30.12,SW,214,0.0,0.0,62,0.00,CLR,CLR,0.00,0.0,WeatherDisplay:10.37,2013-03-23 03:34:00,
2013-03-22 23:39:00,37.9,26.0,30.12,SW,215,0.0,0.0,62,0.00,CLR,CLR,0.00,0.0,WeatherDisplay:10.37,2013-03-23 03:39:00,
2013-03-22 23:44:00,38.0,26.5,30.12,SW,215,0.0,0.0,63,0.00,CLR,CLR,0.00,0.0,WeatherDisplay:10.37,2013-03-23 03:44:00,
2013-03-22 23:49:00,38.0,26.1,30.11,SW,215,0.0,0.0,62,0.00,CLR,CLR,0.00,0.0,WeatherDisplay:10.37,2013-03-23 03:49:00,
2013-03-22 23:54:00,38.0,26.1,30.12,SW,215,0.0,0.0,62,0.00,CLR,CLR,0.00,0.0,WeatherDisplay:10.37,2013-03-23 03:54:00,
2013-03-22 23:59:00,38.0,26.5,30.12,SW,215,0.0,2.0,63,0.00,CLR,CLR,0.00,0.0,WeatherDisplay:10.37,2013-03-23 03:59:00,